Location: Fontaraby
(47.2376°N, 3.2596°E)
Time: 09:30:12
(UTC+00:00)

Daily predictions for brighter satellites

Satellite Brightness Start Highest point End
(mag) Time Altitude Azimuth Time Altitude Azimuth Time Altitude Azimuth
Alouette 2 Rocket 4.3 16:57:21 10° N 17:02:03 70° ENE 17:09:17 10° SSE
COSMOS 2428 2.8 16:58:03 10° NNW 17:03:51 82° ENE 17:09:35 10° SSE
Cosmos 468 4.5 16:59:08 10° NNW 17:04:24 80° ENE 17:09:37 10° SSE
Cosmos 1602 Rocket 4.0 17:05:49 10° SSE 17:09:56 41° E 17:14:03 10° NNE
AQUARIUS 4.1 17:06:05 10° SSE 17:10:34 81° ENE 17:15:05 10° NNW
Cosmos 2074 Rocket 4.0 17:06:04 10° S 17:12:22 83° E 17:18:41 10° N
USA 267 3.5 17:10:15 10° NE 17:16:43 67° NNW 17:23:11 10° WSW
ATLAS CENTAUR R/B 3.4 17:18:08 10° N 17:19:58 12° NNE 17:21:44 10° NE
COSMO-SKYMED 1 3.4 17:16:18 10° NNE 17:20:10 30° E 17:24:00 10° SSE
Cosmos 494 Rocket 4.0 17:18:33 10° NNW 17:23:39 60° ENE 17:28:42 10° SE
Meteor 2-10 Rocket 4.5 17:20:40 10° N 17:25:07 26° ENE 17:29:24 10° ESE
CZ-4C R/B 3.0 17:18:46 10° NW 17:25:57 90° NE 17:34:13 10° SE
Cosmos 1758 Rocket 4.4 17:23:24 10° SSE 17:27:04 28° E 17:30:44 10° NNE
Cosmos 2298 Rocket 4.4 17:22:26 10° SSW 17:27:42 66° WNW 17:33:01 10° NNE
Ariane Rocket 4.4 17:25:16 10° E 17:28:25 17° ENE 17:31:35 10° NNE
TIMED 4.4 17:25:46 10° NNW 17:30:09 69° ENE 17:34:30 10° SSE
Starlink AQ 3.2 17:27:27 10° W 17:30:21 52° NNW 17:32:34 15° NE
CZ-4 R/B 1.9 17:26:42 10° SE 17:30:26 36° ENE 17:34:15 10° N
NOSS 0 Rocket 3.9 17:24:11 10° NNW 17:30:27 80° ENE 17:36:39 10° SSE
Starlink AS 3.2 17:28:10 10° W 17:31:01 51° NNW 17:33:12 16° NE
Starlink BA 3.2 17:28:26 10° W 17:31:19 51° NNW 17:33:28 16° NE
Starlink AU 3.2 17:28:40 10° W 17:31:32 51° NNW 17:33:41 16° NE
Starlink AT 3.2 17:28:53 10° W 17:31:45 50° NNW 17:33:54 16° NE
BREEZE-M DEB (TANK) 3.8 17:30:04 10° SSW 17:31:57 19° SE 17:33:12 14° ESE
Starlink BB 3.2 17:29:07 10° W 17:31:59 50° NNW 17:34:07 16° NE
Starlink BC 3.2 17:29:20 10° W 17:32:11 50° NNW 17:34:19 16° NE
Cosmos 1626 Rocket 3.5 17:27:55 10° S 17:32:15 89° E 17:36:36 10° N
Starlink BK 3.2 17:29:34 10° W 17:32:25 50° NNW 17:34:32 16° NE
Starlink AY 3.2 17:29:47 10° W 17:32:38 50° NNW 17:34:45 16° NE
Nadezhda 3 Rocket 4.0 17:26:30 10° N 17:32:48 79° E 17:39:09 10° SSE
Starlink AW 3.2 17:30:01 10° W 17:32:52 50° NNW 17:34:58 16° NE
Starlink BJ 3.3 17:30:15 10° W 17:33:06 49° NNW 17:35:12 16° NE
Starlink AV 3.2 17:30:27 10° W 17:33:19 49° NNW 17:35:23 16° NE
Starlink BD 3.3 17:30:42 10° W 17:33:33 49° NNW 17:35:37 17° NE
Starlink BE 3.3 17:30:54 10° W 17:33:46 49° NNW 17:35:51 17° NE
Starlink BM 3.3 17:31:09 10° W 17:34:00 49° NNW 17:36:04 17° NE
Starlink AX 3.3 17:31:22 10° W 17:34:13 49° NNW 17:36:16 17° NE
Starlink BH 3.3 17:31:36 10° W 17:34:27 48° NNW 17:36:29 17° NE
Okean-O 2.6 17:30:10 10° SSE 17:34:36 78° ENE 17:39:03 10° NNW
Starlink AZ 3.3 17:31:49 10° W 17:34:41 48° NNW 17:36:42 17° NE
Starlink BG 3.3 17:32:03 10° W 17:34:54 48° NNW 17:36:55 17° NE
Starlink BF 3.3 17:32:17 10° W 17:35:08 48° NNW 17:37:08 17° NE
Starlink BL 3.3 17:32:28 10° W 17:35:21 48° NNW 17:37:22 17° NE
Okean O Rocket 4.4 17:32:04 10° SW 17:35:33 22° W 17:39:03 10° NW
Starlink AH 3.3 17:32:44 10° W 17:35:35 48° NNW 17:37:34 17° NE
Starlink AC 3.3 17:32:58 10° W 17:35:49 48° NNW 17:37:48 17° NE
Starlink X 3.3 17:33:12 10° W 17:36:02 47° NNW 17:38:00 17° NE
Starlink AE 3.3 17:33:21 10° W 17:36:14 48° NNW 17:38:14 17° NE
Starlink Z 3.3 17:33:38 10° W 17:36:29 47° NNW 17:38:26 18° NE
Starlink AK 3.3 17:33:52 10° W 17:36:42 47° NNW 17:38:39 18° NE
Starlink AL 3.3 17:34:06 10° W 17:36:57 47° NNW 17:38:53 18° NE
Starlink AD 3.3 17:34:19 10° W 17:37:09 47° NNW 17:39:04 18° NE
Starlink Y 3.3 17:34:45 10° W 17:37:36 46° NNW 17:39:30 18° NE
Starlink AG 3.3 17:35:01 10° W 17:37:51 46° NNW 17:39:45 18° NE
Starlink W 3.4 17:35:11 10° W 17:38:03 46° NNW 17:39:58 18° NE
Starlink AJ 3.3 17:35:26 10° W 17:38:17 46° NNW 17:40:10 18° NE
Starlink AM 3.4 17:35:51 10° W 17:38:41 46° NNW 17:40:33 18° NE
Starlink AP 3.4 17:36:07 10° W 17:38:57 46° NNW 17:40:49 19° NE
Starlink AA 3.4 17:36:20 10° W 17:39:11 45° NNW 17:41:01 19° NE
Starlink AF 3.4 17:36:29 10° W 17:39:20 45° NNW 17:41:10 19° NE
Starlink AB 3.4 17:36:48 10° W 17:39:38 45° NNW 17:41:28 19° NE
NOSS 2-1 (D) 4.5 17:34:51 10° NNW 17:39:51 53° NE 17:46:45 10° ESE
Starlink AN 3.4 17:37:02 10° W 17:39:52 45° NNW 17:41:41 19° NE
H-2A R/B 3.8 17:43:38 13° NE 17:43:38 13° NE 17:45:05 10° NNE
ATLAS CENTAUR R/B 4.1 17:42:47 10° WSW 17:48:20 63° NNW 18:01:48 14° ENE
Timation 2 Rocket 4.2 17:42:55 10° SW 17:49:01 72° WNW 17:55:25 10° NNE
Cosmos 2251 Rocket 4.4 17:44:35 10° N 17:49:04 27° NE 17:52:20 16° ESE
Cosmos 2237 Rocket 2.1 17:43:47 10° NNW 17:49:26 76° ENE 17:55:03 10° SSE
CZ-2D R/B 3.9 17:46:12 10° SE 17:49:37 32° ENE 17:53:05 10° N
Cosmos 1300 3.5 17:46:13 10° NNW 17:49:57 54° W 17:53:40 10° S
Cosmos 1242 Rocket 3.6 17:46:41 10° SSW 17:50:04 46° WNW 17:53:32 10° N
Starlink T 3.6 17:48:37 10° W 17:51:28 40° NNW 17:52:52 23° NE
USA 234 4.4 17:46:00 10° SSE 17:52:11 45° SW 17:58:25 10° WNW
SJ 16-02 4.1 17:50:27 10° WNW 17:52:12 12° NW 17:53:57 10° NNW
Cosmos 1825 Rocket 3.8 17:48:06 10° SSE 17:52:14 44° E 17:56:22 10° NNE
Cosmos 2333 Rocket 3.7 17:47:05 10° NW 17:52:24 40° WSW 17:57:40 10° S
Starlink N 3.6 17:49:59 10° W 17:52:49 39° NNW 17:54:10 24° NE
Cosmos 1607 4.3 17:47:08 10° SW 17:53:11 63° NW 17:59:20 10° NNE
Starlink Q 3.7 17:51:38 10° W 17:54:28 39° NNW 17:55:45 25° NE
SL-8 Rocket 4.2 17:49:42 10° SSE 17:55:42 48° E 18:01:41 10° NNE
Starlink P 3.7 17:53:06 10° W 17:55:56 38° NNW 17:57:09 25° NNE
USA 32 4.0 17:51:34 10° S 17:56:45 68° E 18:01:57 10° N
Cosmos 2341 Rocket 4.0 17:50:47 10° S 17:57:05 66° E 18:03:22 10° NNE
Starlink U 3.7 17:54:34 10° W 17:57:23 38° NNW 17:58:33 26° NNE
Starlink B 3.7 17:56:03 10° W 17:58:51 37° NNW 17:59:58 26° NNE
Cosmos 724 4.3 17:53:40 10° SSW 17:59:33 64° ESE 18:04:06 17° NE
YAOGAN 6 3.1 17:57:15 10° S 18:00:55 63° W 18:04:34 10° NNW
Cosmos 1626 3.4 17:58:12 10° SSW 18:01:44 42° WNW 18:05:17 10° N
CSL-04 Rocket 3.7 17:57:11 10° SSE 18:02:36 64° ENE 18:08:06 10° N
Meteor 2-17 Rocket 4.4 17:57:23 10° S 18:03:32 88° E 18:09:43 10° N
Cosmos 1455 2.4 18:01:52 10° N 18:05:34 45° ENE 18:09:12 10° SSE
Starlink D 3.8 18:03:01 10° W 18:05:50 35° NNW 18:06:40 29° NNE
Starlink S 3.9 18:04:34 10° W 18:07:23 35° NNW 18:08:09 29° NNE
SKYMED 2 3.5 18:03:59 10° NNE 18:08:22 88° W 18:12:42 10° SSW
ATLAS 5 CENTAUR R/B 3.7 18:05:14 10° WNW 18:08:41 21° NNW 18:12:20 11° NNE
Starlink C 3.9 18:06:04 10° W 18:08:53 34° NNW 18:09:35 30° NNE
Cosmos 1340 Rocket 4.0 18:05:23 10° NNW 18:09:10 45° W 18:12:57 10° SSW
Meteor 1-21 Rocket 4.1 18:03:56 10° S 18:09:30 74° E 18:15:12 10° NNE
Starlink E 3.9 18:07:38 10° W 18:10:26 34° NNW 18:11:05 30° NNE
SL-16 R/B 2.4 18:05:26 10° NNW 18:10:55 46° NE 18:15:04 17° ESE
Cosmos 1328 4.3 18:07:23 10° SSE 18:11:05 36° E 18:11:36 34° ENE
Starlink J 3.9 18:09:12 10° W 18:12:00 33° NNW 18:12:35 30° NNE
Starlink V 3.9 18:10:44 10° W 18:13:32 33° NNW 18:14:03 31° N
Cosmos 1125 Rocket 4.3 18:08:44 10° SW 18:13:48 52° WNW 18:18:54 10° NNE
ISS -2.4 18:11:14 10° SSW 18:14:04 26° SE 18:14:04 26° SE
Cosmos 44 3.8 18:10:41 10° S 18:14:45 32° ESE 18:15:14 31° ESE
Starlink H 3.9 18:12:19 10° W 18:15:07 33° NNW 18:15:34 31° N
USA 116 3.1 18:15:28 51° ENE 18:15:51 56° E 18:18:53 10° S
Shenzhou-11 Module 4.2 18:14:31 10° S 18:15:33 13° SSE 18:15:33 13° SSE
Starlink F 3.9 18:13:54 10° W 18:16:41 32° NNW 18:17:05 31° N
Cosmos 2219 3.1 18:11:19 10° SSW 18:16:57 89° WNW 18:21:51 14° NNE
Starlink G 3.9 18:15:28 10° W 18:18:15 32° NNW 18:18:35 31° N
Starlink L 4.0 18:17:02 10° W 18:19:49 32° NNW 18:20:05 31° N
Cosmos 2082 4.1 18:14:52 10° S 18:20:04 40° ESE 18:21:51 31° ENE
Starlink A 4.0 18:18:38 10° WNW 18:21:24 31° NNW 18:21:36 31° N
Starlink R 4.0 18:20:14 10° WNW 18:23:00 31° NNW 18:23:08 31° N
Starlink AR 4.3 18:21:52 10° WNW 18:23:40 24° NNW 18:23:40 24° NNW
Starlink K 4.0 18:21:48 10° WNW 18:24:33 31° NNW 18:24:38 31° N
Starlink M 4.1 18:23:20 10° WNW 18:26:06 31° NNW 18:26:06 31° NNW
NOSS 2-1 (E) 4.4 18:21:10 10° NW 18:26:35 88° NE 18:34:14 10° SE
YAOGAN 1 2.8 18:24:02 10° S 18:28:20 71° WSW 18:32:41 10° NNW
Cosmos 2218 Rocket 3.9 18:22:24 10° S 18:28:41 70° E 18:35:04 10° NNE
ATLAS 5 CENTAUR R/B 3.9 18:26:23 10° NNW 18:30:29 38° NE 18:33:50 29° E
Cosmos 2297 Rocket 2.1 18:24:59 10° SSW 18:30:38 84° ESE 18:34:25 22° NNE
Cosmos-2242 3.2 18:27:24 10° NNW 18:31:44 71° W 18:35:59 10° S
Cosmos 1339 Rocket 4.3 18:25:54 10° N 18:32:02 85° E 18:38:10 10° S
ADEOS Rocket 3.4 18:27:34 10° NNE 18:33:56 52° E 18:40:56 10° S
Cosmos 864 Rocket 4.3 18:28:32 10° S 18:34:36 70° E 18:40:43 10° NNE
Cosmos 1939 Rocket 2.9 18:31:55 10° S 18:35:48 77° WSW 18:39:47 10° NNW
ERBS 2.5 18:37:25 10° WSW 18:40:26 66° W 18:40:26 66° W
Cosmos 2227 Rocket 2.1 18:37:18 10° SSW 18:42:57 87° WNW 18:46:12 27° NNE
Cosmos 1959 Rocket 4.5 18:46:47 10° S 18:52:57 82° W 18:59:07 10° N
Cosmos 1703 3.3 18:50:06 10° SSW 18:53:59 76° W 18:53:59 76° W
COSMO-SKYMED 1 4.4 18:52:29 10° N 18:56:17 30° WNW 19:00:03 10° SW
ARGOS 4.3 18:59:07 29° NNE 18:59:07 29° NNE 19:01:59 10° N
USA 267 4.1 18:56:47 30° NNE 18:59:10 40° N 19:05:09 10° WNW
Cosmos 1953 Rocket 4.3 18:55:14 10° SSW 18:59:38 54° WNW 19:02:55 17° N
ATLAS CENTAUR R/B 2.9 18:55:58 10° NNW 18:58:01 26° NNW 18:58:01 26° NNW
Cosmos 2366 rocket 4.2 18:58:03 10° SSW 19:04:14 71° W 19:10:32 10° N
CZ-4 R/B 3.9 19:02:25 10° SW 19:05:35 22° W 19:08:49 10° NW
Ariane Rocket 3.0 19:01:56 11° SSE 19:06:45 81° WSW 19:11:52 10° NNW
Meteor 2-10 Rocket 4.5 19:02:19 10° NNW 19:07:27 47° W 19:12:21 10° SSW
Atlas Centaur 2 4.4 19:16:23 10° S 19:17:49 12° S 19:17:49 12° S
H-2A R/B 3.4 19:24:14 27° N 19:24:14 27° N 19:26:30 10° NNW
Cosmos 2251 Rocket 4.3 19:26:31 10° NNW 19:31:38 50° WSW 19:32:56 41° SSW
Meteor 2-12 Rocket 4.5 19:27:06 10° SSW 19:33:08 75° W 19:34:32 54° NNW
SL-16 R/B 3.8 19:49:54 10° NW 19:54:51 32° WSW 19:57:05 24° SW
ATLAS 5 CENTAUR R/B 4.5 19:52:52 10° NNW 19:53:52 12° NNW 19:53:52 12° NNW
Cosmos 2297 Rocket 4.2 20:11:09 10° W 20:15:26 21° NW 20:16:16 21° NNW
Cosmos 2227 Rocket 4.4 20:23:50 10° W 20:27:52 20° NW 20:28:04 20° NW
